Miscellaneous Local Product
Issued by NWS North Platte, NE

Home | Current Version | Previous Version | Graphics & Text | Print | Product List | Glossary On
Versions: 1 2 3 4 5 6 7 8 9 10 11 12 13 14 15 16 17 18 19 20 21 22 23 24 25 26 27 28 29 30 31 32 33 34 35 36 37 38 39 40 41 42 43 44 45 46 47 48 49 50
000
AXUS43 KLBF 280310
MISLBF


WESTERN AND NORTH CENTRAL NEBRASKA HOURLY WEATHER ROUNDUP
NATIONAL WEATHER SERVICE NORTH PLATTE NE
1000 PM CDT MON APR 27 2015

***STATIONS NOT REPORTING VARIABLES SUCH AS SKY/WEATHER OR
PRESSURE ARE PROVIDED BY THE NEBRASKA DEPARTMENT OF
ROADS...RAWS...AND APRS NETWORKS...AND ARE NOT UNDER
NATIONAL WEATHER SERVICE QUALITY CONTROL***

...OBSERVATIONS IN AND NEAR THE EASTERN PANHANDLE OF NEBRASKA...

CITY           SKY/WX    TMP DP  RH WIND       PRES   REMARKS
PINE RIDGE     PTCLDY    44  38  79 NE5       30.32R
CHADRON        PTCLDY    46  40  79 NE5       30.33R
ALLIANCE       CLEAR     47  41  80 N10       30.30R
SIDNEY         MOCLDY    49  43  80 N12       30.29R
WHITECLAY        N/A     41  37  83 N3          N/A
CRESCENT LAKE    N/A     49  40  71 N9          N/A
$$

...OBSERVATIONS IN NORTH CENTRAL NEBRASKA...

CITY           SKY/WX    TMP DP  RH WIND       PRES   REMARKS
VALENTINE      CLEAR     52  41  66 N17G23    30.27R
THEDFORD       PTCLDY    55  43  62 N12G17    30.26R
AINSWORTH      CLEAR     55  41  60 N16G22    30.25R
O`NEILL        MOCLDY    56  32  39 CALM      30.21R
ORD            MOCLDY    49  32  52 CALM      30.19R
BROKEN BOW     MOCLDY    47  32  56 VRB3      30.21R
BROWNLEE         N/A     55  39  54 SE15        N/A
SPRINGVIEW       N/A     56  44  63 N10G20      N/A
BREWSTER         N/A     61  41  48 N12         N/A
ROSE             N/A     63  43  47 SE8         N/A
NEWPORT          N/A     58  41  54 W10         N/A
SARGENT          N/A     51  37  58 CALM        N/A
COMSTOCK         N/A     54  34  46 CALM        N/A
EWING            N/A     51  33  50 CALM        N/A
$$

...OBSERVATIONS IN SOUTHWEST NEBRASKA AND FAR NORTHEAST COLORADO...

CITY           SKY/WX    TMP DP  RH WIND       PRES   REMARKS
WRAY           FAIR      51  34  53 NW5       30.25R
HOLYOKE        FAIR      52  37  58 NW6       30.25R
IMPERIAL       MOCLDY    51  32  48 CALM      30.23R
OGALLALA       MOCLDY    51  37  58 NE3       30.24R
NORTH PLATTE   MOCLDY    50  35  56 NE8       30.23R
MCCOOK         PTCLDY    54  35  48 N6        30.20R
LEXINGTON      PTCLDY    50  34  55 NE8       30.20R
PAXTON           N/A     55  35  46 CALM        N/A
SUTHERLAND       N/A     48  28  45 CALM        N/A
BRADY            N/A     50  35  56 CALM        N/A
GOTHENBURG       N/A     58  31  35 N3          N/A
CALLAWAY         N/A     54  37  53 E3          N/A
$$

...NORTH PLATTE AREA...

CITY           SKY/WX    TMP DP  RH WIND       PRES   REMARKS
AIRPORT        MOCLDY    50  35  56 NE8       30.23R
DOWNTOWN         N/A     55  37  50 CALM        N/A
$$

...SOME WEATHER OBSERVATIONS FROM AROUND THE REGION...

CITY           SKY/WX    TMP DP  RH WIND       PRES   REMARKS
DENVER         CLOUDY    44  40  85 NE3       30.32R
LARAMIE        CLOUDY    38  32  79 E7        30.32R WCI  33
CHEYENNE       CLOUDY    41  37  86 N5        30.33R
SCOTTSBLUFF    CLOUDY    49  42  77 N9        30.31R
RAPID CITY     CLOUDY    45  39  79 N8        30.34R
PIERRE         PTCLDY    49  42  77 N15       30.28R
WINNER         FAIR      52  40  63 NW13      30.27R
SIOUX FALLS    MOCLDY    50  36  58 CALM      30.17R
OMAHA          MOCLDY    57  35  43 NE6       30.15R
GRAND ISLAND   CLOUDY    51  33  50 CALM      30.19R
KANSAS CITY    PTCLDY    53  36  52 NE7       30.10R
WICHITA        CLOUDY    58  36  43 NE9       30.10R
HAYS           PTCLDY    46  30  53 N6        30.16S
LIBERAL        CLOUDY    45  39  81 NW6       30.18R
GOODLAND       PTCLDY    46  34  62 NE5       30.24R
$$



USA.gov is the U.S. government's official web portal to all federal, state and local government web resources and services.